• In Czech Republic
  • List of Countries
  • For 7 days
  • Water Temperature
  • Satellite Maps
  • Weather Map
  • Weather Widgets
  • user-avatar
    Login

    Hourly Weather Ad-Dauha

    Today, 22 October, Sunday

    Time Temperature Precipitation Wind Pressure Humidity
    00:00 +30°C° 0 mm 4 mps 756 mmHg 46%
    01:00 +30°C° 0 mm 4 mps 755 mmHg 46%
    02:00 +30°C° 0 mm 4 mps 755 mmHg 46%
    03:00 +30°C° 0 mm 4 mps 755 mmHg 46%
    04:00 +29°C° 0 mm 4 mps 755 mmHg 48%
    05:00 +29°C° 0 mm 4 mps 756 mmHg 49%
    06:00 +29°C° 0 mm 4 mps 756 mmHg 51%
    07:00 +32°C° 0 mm 4 mps 756 mmHg 46%
    08:00 +33°C° 0 mm 4 mps 756 mmHg 42%
    09:00 +35°C° 0 mm 5 mps 757 mmHg 38%
    10:00 +36°C° 0 mm 4 mps 756 mmHg 34%
    11:00 +37°C° 0 mm 4 mps 756 mmHg 30%
    12:00 +38°C° 0 mm 4 mps 756 mmHg 26%
    13:00 +38°C° 0 mm 4 mps 755 mmHg 25%
    14:00 +40°C° 0 mm 4 mps 755 mmHg 24%
    15:00 +40°C° 0 mm 4 mps 755 mmHg 23%
    16:00 +37°C° 0 mm 4 mps 755 mmHg 27%
    17:00 +36°C° 0 mm 4 mps 755 mmHg 31%
    18:00 +34°C° 0 mm 4 mps 755 mmHg 35%
    19:00 +34°C° 0 mm 3 mps 755 mmHg 38%
    20:00 +33°C° 0 mm 3 mps 755 mmHg 40%
    21:00 +31°C° 0 mm 2 mps 755 mmHg 43%
    22:00 +31°C° 0 mm 2 mps 755 mmHg 45%
    23:00 +30°C° 0 mm 2 mps 755 mmHg 47%

    Tomorrow, 23 October, Monday

    Time Temperature Precipitation Wind Pressure Humidity
    00:00 +30°C° 0 mm 1 mps 755 mmHg 49%
    01:00 +30°C° 0 mm 2 mps 755 mmHg 49%
    02:00 +29°C° 0 mm 2 mps 755 mmHg 49%
    03:00 +29°C° 0 mm 3 mps 755 mmHg 49%
    04:00 +29°C° 0 mm 3 mps 755 mmHg 50%
    05:00 +29°C° 0 mm 3 mps 756 mmHg 51%
    06:00 +29°C° 0 mm 4 mps 756 mmHg 52%
    07:00 +30°C° 0 mm 3 mps 756 mmHg 48%
    08:00 +33°C° 0 mm 3 mps 757 mmHg 44%
    09:00 +34°C° 0 mm 3 mps 757 mmHg 39%
    10:00 +36°C° 0 mm 2 mps 757 mmHg 36%
    11:00 +37°C° 0 mm 2 mps 756 mmHg 33%
    12:00 +38°C° 0 mm 2 mps 756 mmHg 30%
    13:00 +38°C° 0 mm 2 mps 756 mmHg 29%
    14:00 +38°C° 0 mm 3 mps 756 mmHg 29%
    15:00 +38°C° 0 mm 3 mps 755 mmHg 28%
    16:00 +37°C° 0 mm 4 mps 755 mmHg 33%
    17:00 +35°C° 0 mm 4 mps 756 mmHg 37%
    18:00 +34°C° 0 mm 4 mps 756 mmHg 42%
    19:00 +33°C° 0 mm 4 mps 756 mmHg 44%
    20:00 +33°C° 0 mm 4 mps 757 mmHg 47%
    21:00 +32°C° 0 mm 4 mps 757 mmHg 49%
    22:00 +31°C° 0 mm 3 mps 757 mmHg 49%
    23:00 +30°C° 0 mm 3 mps 757 mmHg 48%

    Day after tomorrow, 24 October, Tuesday

    Time Temperature Precipitation Wind Pressure Humidity
    00:00 +30°C° 0 mm 3 mps 757 mmHg 48%
    01:00 +29°C° 0 mm 2 mps 757 mmHg 48%
    02:00 +29°C° 0 mm 2 mps 757 mmHg 48%
    03:00 +28°C° 0 mm 2 mps 757 mmHg 48%
    04:00 +28°C° 0 mm 2 mps 757 mmHg 48%
    05:00 +28°C° 0 mm 1 mps 757 mmHg 47%
    06:00 +28°C° 0 mm 1 mps 758 mmHg 47%
    07:00 +30°C° 0 mm 1 mps 758 mmHg 43%
    08:00 +32°C° 0 mm 1 mps 759 mmHg 38%
    09:00 +33°C° 0 mm 1 mps 759 mmHg 34%
    10:00 +34°C° 0 mm 1 mps 759 mmHg 32%
    11:00 +35°C° 0 mm 1 mps 759 mmHg 30%
    12:00 +36°C° 0 mm 1 mps 758 mmHg 27%
    13:00 +37°C° 0 mm 2 mps 758 mmHg 27%
    14:00 +37°C° 0 mm 2 mps 758 mmHg 27%
    15:00 +37°C° 0 mm 3 mps 757 mmHg 27%
    16:00 +36°C° 0 mm 3 mps 758 mmHg 33%
    17:00 +35°C° 0 mm 3 mps 758 mmHg 38%
    18:00 +33°C° 0 mm 3 mps 758 mmHg 44%
    19:00 +33°C° 0 mm 3 mps 759 mmHg 47%
    20:00 +31°C° 0 mm 3 mps 759 mmHg 50%
    21:00 +31°C° 0 mm 3 mps 759 mmHg 53%
    22:00 +30°C° 0 mm 3 mps 759 mmHg 53%
    23:00 +30°C° 0 mm 2 mps 759 mmHg 53%

    25 October, Wednesday

    Time Temperature Precipitation Wind Pressure Humidity
    00:00 +30°C° 0 mm 2 mps 759 mmHg 54%
    01:00 +29°C° 0 mm 2 mps 759 mmHg 53%
    02:00 +29°C° 0 mm 2 mps 759 mmHg 52%
    03:00 +28°C° 0 mm 2 mps 759 mmHg 51%
    04:00 +28°C° 0 mm 2 mps 759 mmHg 50%
    05:00 +28°C° 0 mm 1 mps 759 mmHg 49%
    06:00 +28°C° 0 mm 1 mps 760 mmHg 49%
    07:00 +29°C° 0 mm 1 mps 760 mmHg 45%
    08:00 +31°C° 0 mm 1 mps 761 mmHg 42%
    09:00 +33°C° 0 mm 1 mps 761 mmHg 39%
    10:00 +34°C° 0 mm 1 mps 761 mmHg 36%
    11:00 +36°C° 0 mm 2 mps 760 mmHg 33%
    12:00 +37°C° 0 mm 2 mps 760 mmHg 30%
    13:00 +37°C° 0 mm 2 mps 759 mmHg 31%
    14:00 +37°C° 0 mm 3 mps 759 mmHg 32%
    15:00 +37°C° 0 mm 3 mps 759 mmHg 34%
    16:00 +35°C° 0 mm 3 mps 759 mmHg 39%
    17:00 +34°C° 0 mm 3 mps 759 mmHg 45%
    18:00 +33°C° 0 mm 3 mps 760 mmHg 51%
    19:00 +31°C° 0 mm 2 mps 760 mmHg 53%
    20:00 +31°C° 0 mm 2 mps 760 mmHg 56%
    21:00 +30°C° 0 mm 2 mps 760 mmHg 58%
    22:00 +29°C° 0 mm 1 mps 760 mmHg 59%
    23:00 +29°C° 0 mm 1 mps 760 mmHg 60%

    26 October, Thursday

    Time Temperature Precipitation Wind Pressure Humidity
    00:00 +28°C° 0 mm 1 mps 759 mmHg 61%
    01:00 +28°C° 0 mm 1 mps 759 mmHg 61%
    02:00 +28°C° 0 mm 2 mps 759 mmHg 60%
    03:00 +28°C° 0 mm 2 mps 759 mmHg 60%
    04:00 +28°C° 0 mm 2 mps 759 mmHg 60%
    05:00 +27°C° 0 mm 2 mps 760 mmHg 60%
    06:00 +27°C° 0 mm 1 mps 760 mmHg 60%
    07:00 +29°C° 0 mm 1 mps 760 mmHg 55%
    08:00 +30°C° 0 mm 1 mps 761 mmHg 50%
    09:00 +30°C° 0 mm 0 mps 761 mmHg 45%
    10:00 +33°C° 0 mm 1 mps 760 mmHg 42%
    11:00 +34°C° 0 mm 1 mps 760 mmHg 40%
    12:00 +35°C° 0 mm 1 mps 759 mmHg 37%
    13:00 +36°C° 0 mm 2 mps 759 mmHg 36%
    14:00 +36°C° 0 mm 3 mps 759 mmHg 36%
    15:00 +36°C° 0 mm 4 mps 758 mmHg 35%
    16:00 +35°C° 0 mm 4 mps 759 mmHg 40%
    17:00 +34°C° 0 mm 4 mps 759 mmHg 46%
    18:00 +33°C° 0 mm 3 mps 759 mmHg 51%
    19:00 +31°C° 0 mm 3 mps 759 mmHg 53%
    20:00 +31°C° 0 mm 3 mps 759 mmHg 55%
    21:00 +30°C° 0 mm 3 mps 759 mmHg 56%
    22:00 +30°C° 0 mm 2 mps 759 mmHg 56%
    23:00 +29°C° 0 mm 2 mps 758 mmHg 56%

    27 October, Friday

    Time Temperature Precipitation Wind Pressure Humidity
    00:00 +29°C° 0 mm 2 mps 758 mmHg 56%
    01:00 +29°C° 0 mm 2 mps 758 mmHg 56%
    02:00 +28°C° 0 mm 2 mps 758 mmHg 56%
    03:00 +28°C° 0 mm 1 mps 758 mmHg 55%
    04:00 +28°C° 0 mm 1 mps 758 mmHg 55%
    05:00 +28°C° 0 mm 1 mps 759 mmHg 55%
    06:00 +28°C° 0 mm 1 mps 759 mmHg 55%
    07:00 +30°C° 0 mm 1 mps 759 mmHg 51%
    08:00 +31°C° 0 mm 1 mps 759 mmHg 47%
    09:00 +33°C° 0 mm 1 mps 760 mmHg 43%
    10:00 +34°C° 0 mm 1 mps 759 mmHg 39%
    11:00 +35°C° 0 mm 1 mps 759 mmHg 36%
    12:00 +37°C° 0 mm 2 mps 758 mmHg 32%
    13:00 +37°C° 0 mm 2 mps 758 mmHg 32%
    14:00 +37°C° 0 mm 3 mps 757 mmHg 32%
    15:00 +37°C° 0 mm 3 mps 757 mmHg 32%
    16:00 +36°C° 0 mm 3 mps 757 mmHg 38%
    17:00 +34°C° 0 mm 3 mps 757 mmHg 43%
    18:00 +33°C° 0 mm 3 mps 758 mmHg 48%
    19:00 +33°C° 0 mm 3 mps 758 mmHg 50%
    20:00 +31°C° 0 mm 3 mps 758 mmHg 51%
    21:00 +31°C° 0 mm 2 mps 758 mmHg 53%
    22:00 +31°C° 0 mm 2 mps 758 mmHg 53%
    23:00 +30°C° 0 mm 2 mps 758 mmHg 52%
    Show more